This is the latest recevied weather packets stored in our database for station/object K7SKM. If no packets are shown the sender has not sent any weather packets the latest 10 day(s).
| Time | Temp. | Humidity | Pressure | Rain* | Wind** | Luminosity | Snow |
|---|---|---|---|---|---|---|---|
| 1778015246 | 16.67° C | 64% | 1020.9 hPa | 0 mm | - | 141 W/m² | - |
| 1778014943 | 17.22° C | 62% | 1021.1 hPa | 0 mm | - | 141 W/m² | - |
| 1778014641 | 17.22° C | 63% | 1021.3 hPa | 0 mm | - | 142 W/m² | - |
| 1778014339 | 16.67° C | 65% | 1021.2 hPa | 0 mm | - | 143 W/m² | - |
| 1778014035 | 16.67° C | 66% | 1021.2 hPa | 0 mm | - | 132 W/m² | - |
| 1778013733 | 16.67° C | 64% | 1021.3 hPa | 0 mm | - | 125 W/m² | - |
| 1778013430 | 16.67° C | 64% | 1021.3 hPa | 0 mm | - | 125 W/m² | - |
| 1778013127 | 16.67° C | 65% | 1021.4 hPa | 0 mm | - | 120 W/m² | - |
| 1778012822 | 16.67° C | 65% | 1021.3 hPa | 0 mm | - | 121 W/m² | - |
| 1778012519 | 16.67° C | 65% | 1021.3 hPa | 0 mm | - | 122 W/m² | - |
| 1778012215 | 16.67° C | 67% | 1021.1 hPa | 0 mm | - | 119 W/m² | - |
| 1778011913 | 16.67° C | 66% | 1021.2 hPa | 0 mm | - | 116 W/m² | - |
| 1778011611 | 16.11° C | 66% | 1021.1 hPa | 0 mm | - | 114 W/m² | - |
| 1778011307 | 16.11° C | 66% | 1021.3 hPa | 0 mm | - | 108 W/m² | - |
| 1778011003 | 16.11° C | 67% | 1021.3 hPa | 0 mm | - | 105 W/m² | - |
| 1778010701 | 16.11° C | 66% | 1021.1 hPa | 0 mm | - | 104 W/m² | - |
| 1778010398 | 16.11° C | 67% | 1021.2 hPa | 0 mm | - | 108 W/m² | - |
| 1778010094 | 16.11° C | 66% | 1021.2 hPa | 0 mm | - | 111 W/m² | - |
| 1778009791 | 16.11° C | 66% | 1021.3 hPa | 0 mm | - | 116 W/m² | - |
| 1778009488 | 16.11° C | 67% | 1021.1 hPa | 0 mm | - | 123 W/m² | - |
| 1778009187 | 15.56° C | 68% | 1021.1 hPa | 0 mm | - | 111 W/m² | - |
| 1778008883 | 15.56° C | 68% | 1021.3 hPa | 0 mm | - | 106 W/m² | - |
| 1778008582 | 15.56° C | 69% | 1021.5 hPa | 0 mm | - | 100 W/m² | - |
| 1778008280 | 15.56° C | 69% | 1021.3 hPa | 0 mm | - | 95 W/m² | - |
| 1778007975 | 15.56° C | 67% | 1021.3 hPa | 0 mm | - | 94 W/m² | - |
* Rain latest hour (hover to see other rain measurements)
** Current wind speed in m/s (hover to see current wind gust speed)